Wetterdaten: Woche 28.12.15 - 03.01.16 (KW53)
Datum Zeit Temperatur Luftfeuchte Luftdruck Niederschlag Windrichtung Sonnenschein Solar Wind
28.12.2015 00:00 -0,5 C 95 % 1032,5 hPa 0,0 l/m S-SW 0,00 h 0 W/m 0,8 km/h (0 Bft)
28.12.2015 01:00 -0,9 C 95 % 1032,2 hPa 0,0 l/m N 0,00 h 0 W/m 0,0 km/h (0 Bft)
28.12.2015 02:00 -1,4 C 96 % 1032,2 hPa 0,0 l/m N 0,00 h 0 W/m 0,0 km/h (0 Bft)
28.12.2015 03:00 -1,7 C 96 % 1031,8 hPa 0,0 l/m S-SW 0,00 h 0 W/m 0,7 km/h (0 Bft)
28.12.2015 04:00 -1,9 C 96 % 1031,5 hPa 0,0 l/m S-SW 0,00 h 0 W/m 0,5 km/h (0 Bft)
28.12.2015 05:00 -2,3 C 96 % 1031,3 hPa 0,0 l/m N 0,00 h 0 W/m 0,8 km/h (0 Bft)
28.12.2015 06:00 -2,7 C 96 % 1030,9 hPa 0,0 l/m S-SW 0,00 h 0 W/m 1,1 km/h (0 Bft)
28.12.2015 07:00 -2,9 C 96 % 1030,9 hPa 0,0 l/m S-SW 0,00 h 0 W/m 1,3 km/h (1 Bft)
28.12.2015 08:00 -2,9 C 96 % 1031,1 hPa 0,0 l/m N 0,00 h 12 W/m 0,0 km/h (0 Bft)
28.12.2015 09:00 -2,7 C 97 % 1031,2 hPa 0,0 l/m N 0,00 h 30 W/m 0,0 km/h (0 Bft)
28.12.2015 10:00 -1,3 C 98 % 1031,2 hPa 0,0 l/m N 0,67 h 144 W/m 0,0 km/h (0 Bft)
28.12.2015 11:00 0,8 C 98 % 1030,8 hPa 0,0 l/m N 0,83 h 212 W/m 0,7 km/h (0 Bft)
28.12.2015 12:00 4,0 C 89 % 1030,1 hPa 0,0 l/m N 1,00 h 302 W/m 0,0 km/h (0 Bft)
28.12.2015 13:00 5,9 C 82 % 1029,2 hPa 0,0 l/m N 1,00 h 288 W/m 0,0 km/h (0 Bft)
28.12.2015 14:00 6,7 C 74 % 1028,7 hPa 0,0 l/m N 1,00 h 214 W/m 0,0 km/h (0 Bft)
28.12.2015 15:00 6,0 C 78 % 1028,4 hPa 0,0 l/m N 0,83 h 83 W/m 0,0 km/h (0 Bft)
28.12.2015 16:00 3,8 C 85 % 1028,3 hPa 0,0 l/m S-SW 0,08 h 10 W/m 0,9 km/h (0 Bft)
28.12.2015 17:00 2,8 C 89 % 1028,3 hPa 0,0 l/m S-SW 0,00 h 0 W/m 4,9 km/h (1 Bft)
28.12.2015 18:00 2,0 C 89 % 1028,2 hPa 0,0 l/m SW 0,00 h 0 W/m 2,9 km/h (1 Bft)
28.12.2015 19:00 1,3 C 91 % 1028,0 hPa 0,0 l/m W-SW 0,00 h 0 W/m 3,9 km/h (1 Bft)
28.12.2015 20:00 0,7 C 93 % 1027,8 hPa 0,0 l/m W-SW 0,00 h 0 W/m 4,5 km/h (1 Bft)
28.12.2015 21:00 0,3 C 94 % 1027,5 hPa 0,0 l/m W-SW 0,00 h 0 W/m 5,2 km/h (1 Bft)
28.12.2015 22:00 -0,1 C 94 % 1027,0 hPa 0,0 l/m N 0,00 h 0 W/m 2,1 km/h (1 Bft)
28.12.2015 23:00 -0,6 C 94 % 1026,8 hPa 0,0 l/m N 0,00 h 0 W/m 0,1 km/h (0 Bft)
29.12.2015 00:00 -1,4 C 94 % 1026,9 hPa 0,0 l/m N 0,00 h 0 W/m 0,0 km/h (0 Bft)
29.12.2015 01:00 -2,1 C 95 % 1026,9 hPa 0,0 l/m N 0,00 h 0 W/m 0,0 km/h (0 Bft)
29.12.2015 02:00 -2,7 C 95 % 1026,9 hPa 0,0 l/m N 0,00 h 0 W/m 0,0 km/h (0 Bft)
29.12.2015 03:00 -3,6 C 95 % 1026,8 hPa 0,0 l/m N 0,00 h 0 W/m 0,0 km/h (0 Bft)
29.12.2015 04:00 -4,3 C 95 % 1026,7 hPa 0,0 l/m N 0,00 h 0 W/m 0,0 km/h (0 Bft)
29.12.2015 05:00 -4,7 C 96 % 1026,5 hPa 0,0 l/m N 0,00 h 0 W/m 0,0 km/h (0 Bft)
29.12.2015 06:00 -5,1 C 96 % 1026,6 hPa 0,0 l/m N 0,00 h 0 W/m 0,0 km/h (0 Bft)
29.12.2015 07:00 -5,2 C 96 % 1027,0 hPa 0,0 l/m N 0,00 h 0 W/m 0,0 km/h (0 Bft)
29.12.2015 08:00 -5,2 C 96 % 1027,7 hPa 0,0 l/m N 0,00 h 10 W/m 0,0 km/h (0 Bft)
29.12.2015 09:00 -4,2 C 97 % 1028,2 hPa 0,0 l/m W-SW 0,00 h 49 W/m 5,7 km/h (1 Bft)
29.12.2015 10:00 -3,2 C 97 % 1028,8 hPa 0,0 l/m SW 0,25 h 117 W/m 8,0 km/h (2 Bft)
29.12.2015 11:00 -2,2 C 98 % 1029,0 hPa 0,0 l/m S-SW 0,00 h 126 W/m 10,5 km/h (2 Bft)
29.12.2015 12:00 -1,1 C 98 % 1029,1 hPa 0,2 l/m S-SW 0,00 h 121 W/m 9,7 km/h (2 Bft)
29.12.2015 13:00 -0,4 C 99 % 1029,3 hPa 0,0 l/m S-SW 0,00 h 87 W/m 11,0 km/h (2 Bft)
29.12.2015 14:00 0,2 C 99 % 1029,8 hPa 0,0 l/m S-SW 0,00 h 60 W/m 7,2 km/h (2 Bft)
29.12.2015 15:00 0,1 C 99 % 1030,6 hPa 0,0 l/m S-SW 0,00 h 27 W/m 4,9 km/h (1 Bft)
29.12.2015 16:00 -0,2 C 99 % 1031,1 hPa 0,0 l/m S-SW 0,00 h 10 W/m 2,5 km/h (1 Bft)
29.12.2015 17:00 -0,5 C 99 % 1031,7 hPa 0,0 l/m N 0,00 h 0 W/m 0,0 km/h (0 Bft)
29.12.2015 18:00 -0,9 C 99 % 1032,0 hPa 0,0 l/m N 0,00 h 0 W/m 0,0 km/h (0 Bft)
29.12.2015 19:00 -1,2 C 99 % 1032,1 hPa 0,0 l/m N 0,00 h 0 W/m 0,0 km/h (0 Bft)
29.12.2015 20:00 -1,7 C 99 % 1032,4 hPa 0,0 l/m N 0,00 h 0 W/m 0,0 km/h (0 Bft)
29.12.2015 21:00 -2,1 C 99 % 1032,6 hPa 0,0 l/m N 0,00 h 0 W/m 0,0 km/h (0 Bft)
29.12.2015 22:00 -2,4 C 99 % 1032,4 hPa 0,0 l/m S-SW 0,00 h 0 W/m 0,4 km/h (0 Bft)
29.12.2015 23:00 -2,2 C 99 % 1032,4 hPa 0,0 l/m N 0,00 h 0 W/m 0,1 km/h (0 Bft)
30.12.2015 00:00 -1,5 C 99 % 1032,3 hPa 0,0 l/m N 0,00 h 0 W/m 0,0 km/h (0 Bft)
30.12.2015 01:00 -0,8 C 99 % 1031,8 hPa 0,0 l/m N 0,00 h 0 W/m 0,3 km/h (0 Bft)
30.12.2015 02:00 -0,4 C 100 % 1031,8 hPa 0,0 l/m N 0,00 h 0 W/m 0,0 km/h (0 Bft)
30.12.2015 03:00 -0,1 C 100 % 1031,4 hPa 0,0 l/m S-SW 0,00 h 0 W/m 2,7 km/h (1 Bft)
30.12.2015 04:00 -0,1 C 99 % 1030,9 hPa 0,0 l/m S-SW 0,00 h 0 W/m 2,0 km/h (1 Bft)
30.12.2015 05:00 0,1 C 100 % 1030,7 hPa 0,0 l/m SW 0,00 h 0 W/m 3,1 km/h (1 Bft)
30.12.2015 06:00 0,0 C 100 % 1030,4 hPa 0,0 l/m W 0,00 h 0 W/m 6,3 km/h (2 Bft)
30.12.2015 07:00 -0,6 C 99 % 1030,2 hPa 0,0 l/m W-NW 0,00 h 0 W/m 7,4 km/h (2 Bft)
30.12.2015 08:00 -0,9 C 99 % 1029,9 hPa 0,0 l/m W-NW 0,00 h 9 W/m 7,5 km/h (2 Bft)
30.12.2015 09:00 -0,9 C 100 % 1029,8 hPa 0,0 l/m N-NW 0,00 h 27 W/m 8,4 km/h (2 Bft)
30.12.2015 10:00 -0,7 C 100 % 1029,3 hPa 0,0 l/m N-NO 0,00 h 38 W/m 8,6 km/h (2 Bft)
30.12.2015 11:00 0,2 C 100 % 1028,6 hPa 0,0 l/m N-NO 0,00 h 45 W/m 8,0 km/h (2 Bft)
30.12.2015 12:00 0,9 C 100 % 1027,8 hPa 0,0 l/m N-NO 0,00 h 45 W/m 7,0 km/h (2 Bft)
30.12.2015 13:00 1,3 C 100 % 1026,8 hPa 0,0 l/m NO 0,00 h 44 W/m 10,3 km/h (2 Bft)
30.12.2015 14:00 1,8 C 100 % 1026,2 hPa 0,0 l/m O-NO 0,00 h 32 W/m 14,1 km/h (3 Bft)
30.12.2015 15:00 1,9 C 100 % 1025,7 hPa 0,0 l/m O-NO 0,00 h 18 W/m 13,8 km/h (3 Bft)
30.12.2015 16:00 1,9 C 100 % 1025,4 hPa 0,0 l/m O-NO 0,00 h 8 W/m 7,5 km/h (2 Bft)
30.12.2015 17:00 1,8 C 100 % 1025,3 hPa 0,0 l/m NO 0,00 h 0 W/m 7,8 km/h (2 Bft)
30.12.2015 18:00 1,4 C 99 % 1025,0 hPa 0,0 l/m O-NO 0,00 h 0 W/m 7,1 km/h (2 Bft)
30.12.2015 19:00 1,3 C 99 % 1024,8 hPa 0,0 l/m N 0,00 h 0 W/m 0,4 km/h (0 Bft)
30.12.2015 20:00 1,2 C 99 % 1024,2 hPa 0,0 l/m O-NO 0,00 h 0 W/m 3,5 km/h (1 Bft)
30.12.2015 21:00 1,0 C 99 % 1023,7 hPa 0,0 l/m O-NO 0,00 h 0 W/m 1,6 km/h (1 Bft)
30.12.2015 22:00 0,6 C 99 % 1023,5 hPa 0,0 l/m O 0,00 h 0 W/m 3,1 km/h (1 Bft)
30.12.2015 23:00 0,2 C 99 % 1023,0 hPa 0,0 l/m O 0,00 h 0 W/m 2,4 km/h (1 Bft)
31.12.2015 00:00 -0,1 C 99 % 1022,8 hPa 0,0 l/m N 0,00 h 0 W/m 0,0 km/h (0 Bft)
31.12.2015 01:00 -0,1 C 99 % 1022,7 hPa 0,0 l/m N 0,00 h 0 W/m 0,0 km/h (0 Bft)
31.12.2015 02:00 -0,0 C 99 % 1023,0 hPa 0,0 l/m O 0,00 h 0 W/m 3,7 km/h (1 Bft)
31.12.2015 03:00 -0,2 C 99 % 1023,0 hPa 0,0 l/m O-SO 0,00 h 0 W/m 2,9 km/h (1 Bft)
31.12.2015 04:00 -0,3 C 99 % 1023,0 hPa 0,0 l/m S 0,00 h 0 W/m 5,5 km/h (1 Bft)
31.12.2015 05:00 -0,0 C 99 % 1023,4 hPa 0,0 l/m W-SW 0,00 h 0 W/m 7,5 km/h (2 Bft)
31.12.2015 06:00 0,4 C 100 % 1023,9 hPa 0,0 l/m W-SW 0,00 h 0 W/m 8,7 km/h (2 Bft)
31.12.2015 07:00 0,5 C 100 % 1024,2 hPa 0,0 l/m S-SW 0,00 h 0 W/m 14,6 km/h (3 Bft)
31.12.2015 08:00 0,8 C 100 % 1024,7 hPa 0,0 l/m S-SW 0,08 h 9 W/m 8,2 km/h (2 Bft)
31.12.2015 09:00 1,1 C 100 % 1025,4 hPa 0,6 l/m S-SW 0,00 h 12 W/m 6,5 km/h (2 Bft)
31.12.2015 10:00 1,2 C 100 % 1025,6 hPa 0,4 l/m S-SW 0,00 h 17 W/m 10,1 km/h (2 Bft)
31.12.2015 11:00 1,3 C 100 % 1026,0 hPa 0,2 l/m S-SW 0,00 h 15 W/m 8,6 km/h (2 Bft)
31.12.2015 12:00 1,5 C 100 % 1025,7 hPa 0,2 l/m S-SW 0,00 h 25 W/m 7,1 km/h (2 Bft)
31.12.2015 13:00 2,3 C 100 % 1025,4 hPa 0,8 l/m S 0,00 h 29 W/m 6,3 km/h (2 Bft)
31.12.2015 14:00 2,5 C 100 % 1025,2 hPa 1,0 l/m S 0,00 h 19 W/m 6,3 km/h (2 Bft)
31.12.2015 15:00 2,8 C 100 % 1025,4 hPa 0,6 l/m S-SO 0,00 h 11 W/m 2,4 km/h (1 Bft)
31.12.2015 16:00 3,0 C 100 % 1025,6 hPa 0,6 l/m N 0,00 h 6 W/m 0,0 km/h (0 Bft)
31.12.2015 17:00 3,1 C 100 % 1025,7 hPa 0,0 l/m N 0,00 h 0 W/m 0,0 km/h (0 Bft)
31.12.2015 18:00 3,1 C 100 % 1026,0 hPa 0,0 l/m N 0,00 h 0 W/m 0,8 km/h (0 Bft)
31.12.2015 19:00 3,0 C 100 % 1026,0 hPa 0,2 l/m S-SO 0,00 h 0 W/m 1,2 km/h (1 Bft)
31.12.2015 20:00 3,1 C 100 % 1025,9 hPa 0,0 l/m N 0,00 h 0 W/m 0,0 km/h (0 Bft)
31.12.2015 21:00 3,1 C 100 % 1025,6 hPa 0,0 l/m N 0,00 h 0 W/m 0,0 km/h (0 Bft)
31.12.2015 22:00 2,9 C 100 % 1025,4 hPa 0,4 l/m N 0,00 h 0 W/m 0,0 km/h (0 Bft)
31.12.2015 23:00 3,1 C 100 % 1025,5 hPa 0,6 l/m N 0,00 h 0 W/m 0,0 km/h (0 Bft)
01.01.2016 00:00 3,1 C 100 % 1025,6 hPa 0,2 l/m N 0,00 h 0 W/m 0,0 km/h (0 Bft)
01.01.2016 01:00 3,1 C 100 % 1025,4 hPa 0,4 l/m N 0,00 h 0 W/m 0,0 km/h (0 Bft)
01.01.2016 02:00 3,2 C 100 % 1025,4 hPa 0,0 l/m N 0,00 h 0 W/m 0,0 km/h (0 Bft)
01.01.2016 03:00 3,3 C 100 % 1025,8 hPa 0,0 l/m S-SO 0,00 h 0 W/m 1,1 km/h (0 Bft)
01.01.2016 04:00 3,5 C 100 % 1026,0 hPa 0,0 l/m S-SO 0,00 h 0 W/m 1,1 km/h (0 Bft)
01.01.2016 05:00 3,5 C 100 % 1026,2 hPa 0,0 l/m S-SO 0,00 h 0 W/m 1,6 km/h (1 Bft)
01.01.2016 06:00 3,2 C 100 % 1026,6 hPa 0,0 l/m S-SO 0,00 h 0 W/m 3,2 km/h (1 Bft)
01.01.2016 07:00 3,2 C 100 % 1026,5 hPa 0,0 l/m S 0,00 h 0 W/m 3,7 km/h (1 Bft)
01.01.2016 08:00 3,1 C 100 % 1026,8 hPa 0,0 l/m N 0,00 h 15 W/m 0,0 km/h (0 Bft)
01.01.2016 09:00 3,2 C 100 % 1026,8 hPa 0,0 l/m N 0,00 h 28 W/m 0,3 km/h (0 Bft)
01.01.2016 10:00 3,6 C 100 % 1026,6 hPa 0,0 l/m N 0,00 h 79 W/m 0,0 km/h (0 Bft)
01.01.2016 11:00 4,2 C 100 % 1026,2 hPa 0,0 l/m S 0,08 h 115 W/m 2,4 km/h (1 Bft)
01.01.2016 12:00 4,5 C 100 % 1025,5 hPa 0,0 l/m S 0,00 h 76 W/m 3,7 km/h (1 Bft)
01.01.2016 13:00 4,6 C 99 % 1024,6 hPa 0,0 l/m SO 0,00 h 59 W/m 5,5 km/h (1 Bft)
01.01.2016 14:00 5,0 C 97 % 1023,7 hPa 0,0 l/m SO 0,08 h 78 W/m 3,7 km/h (1 Bft)
01.01.2016 15:00 5,4 C 94 % 1023,1 hPa 0,0 l/m SO 0,67 h 80 W/m 3,1 km/h (1 Bft)
01.01.2016 16:00 5,1 C 93 % 1022,7 hPa 0,0 l/m N 0,08 h 16 W/m 1,1 km/h (0 Bft)
01.01.2016 17:00 3,7 C 94 % 1022,2 hPa 0,0 l/m O-NO 0,00 h 0 W/m 5,9 km/h (2 Bft)
01.01.2016 18:00 3,7 C 97 % 1021,5 hPa 0,0 l/m O-NO 0,00 h 0 W/m 12,8 km/h (3 Bft)
01.01.2016 19:00 3,4 C 96 % 1020,9 hPa 0,0 l/m O 0,00 h 0 W/m 16,6 km/h (3 Bft)
01.01.2016 20:00 3,3 C 96 % 1020,0 hPa 0,0 l/m O-NO 0,00 h 0 W/m 12,1 km/h (2 Bft)
01.01.2016 21:00 3,4 C 96 % 1019,0 hPa 0,0 l/m O-NO 0,00 h 0 W/m 10,9 km/h (2 Bft)
01.01.2016 22:00 3,4 C 96 % 1018,4 hPa 0,0 l/m O 0,00 h 0 W/m 12,8 km/h (3 Bft)
01.01.2016 23:00 3,4 C 96 % 1017,9 hPa 0,0 l/m O-NO 0,00 h 0 W/m 6,4 km/h (2 Bft)
02.01.2016 00:00 3,4 C 96 % 1017,6 hPa 0,0 l/m O-NO 0,00 h 0 W/m 2,1 km/h (1 Bft)
02.01.2016 01:00 3,4 C 96 % 1017,1 hPa 0,0 l/m N 0,00 h 0 W/m 0,0 km/h (0 Bft)
02.01.2016 02:00 3,3 C 96 % 1016,5 hPa 0,0 l/m N 0,00 h 0 W/m 0,0 km/h (0 Bft)
02.01.2016 03:00 3,1 C 96 % 1015,9 hPa 0,0 l/m O-NO 0,00 h 0 W/m 0,9 km/h (0 Bft)
02.01.2016 04:00 3,1 C 96 % 1015,1 hPa 0,0 l/m O-SO 0,00 h 0 W/m 3,8 km/h (1 Bft)
02.01.2016 05:00 2,8 C 97 % 1015,0 hPa 0,0 l/m O-SO 0,00 h 0 W/m 2,1 km/h (1 Bft)
02.01.2016 06:00 2,7 C 96 % 1015,0 hPa 0,0 l/m O-SO 0,00 h 0 W/m 1,2 km/h (1 Bft)
02.01.2016 07:00 2,7 C 96 % 1014,6 hPa 0,0 l/m O-SO 0,00 h 0 W/m 1,5 km/h (1 Bft)
02.01.2016 08:00 2,6 C 97 % 1014,5 hPa 0,0 l/m N 0,00 h 7 W/m 0,4 km/h (0 Bft)
02.01.2016 09:00 2,7 C 97 % 1014,0 hPa 0,0 l/m O-SO 0,00 h 23 W/m 0,4 km/h (0 Bft)
02.01.2016 10:00 2,8 C 97 % 1013,5 hPa 0,0 l/m O-SO 0,00 h 32 W/m 3,9 km/h (1 Bft)
02.01.2016 11:00 3,1 C 97 % 1013,1 hPa 0,0 l/m O-SO 0,00 h 48 W/m 0,8 km/h (0 Bft)
02.01.2016 12:00 3,5 C 97 % 1012,4 hPa 0,0 l/m O-SO 0,00 h 59 W/m 0,9 km/h (0 Bft)
02.01.2016 13:00 3,8 C 97 % 1011,5 hPa 0,2 l/m O 0,00 h 41 W/m 8,0 km/h (2 Bft)
02.01.2016 14:00 3,9 C 97 % 1011,1 hPa 0,0 l/m O 0,00 h 34 W/m 7,1 km/h (2 Bft)
02.01.2016 15:00 3,9 C 96 % 1011,6 hPa 0,0 l/m O 0,00 h 15 W/m 4,3 km/h (1 Bft)
02.01.2016 16:00 3,9 C 96 % 1012,2 hPa 0,2 l/m N 0,00 h 8 W/m 0,0 km/h (0 Bft)
02.01.2016 17:00 3,9 C 97 % 1012,5 hPa 0,8 l/m N 0,00 h 0 W/m 0,3 km/h (0 Bft)
02.01.2016 18:00 3,9 C 97 % 1012,4 hPa 1,0 l/m O 0,00 h 0 W/m 4,1 km/h (1 Bft)
02.01.2016 19:00 3,6 C 98 % 1012,3 hPa 1,0 l/m S-SW 0,00 h 0 W/m 8,9 km/h (2 Bft)
02.01.2016 20:00 3,1 C 98 % 1012,5 hPa 1,8 l/m SW 0,00 h 0 W/m 12,2 km/h (2 Bft)
02.01.2016 21:00 2,9 C 98 % 1012,7 hPa 2,6 l/m SW 0,00 h 0 W/m 11,1 km/h (2 Bft)
02.01.2016 22:00 2,7 C 98 % 1012,7 hPa 1,2 l/m SW 0,00 h 0 W/m 6,2 km/h (2 Bft)
02.01.2016 23:00 2,9 C 99 % 1012,6 hPa 1,0 l/m SW 0,00 h 0 W/m 10,6 km/h (2 Bft)
03.01.2016 00:00 3,2 C 99 % 1012,6 hPa 0,2 l/m SW 0,00 h 0 W/m 9,7 km/h (2 Bft)
Min-Datum _ 29.12.15 28.12.15 02.01.16 - - - - 28.12.15
_ Min-Zeit 08:05 14:50 13:55 - - - - 00:15
Minimum _ -5,4 C 70 % 1011,0 hPa - - - - 0,0 km/h (0 Bft)
Max-Datum _ 28.12.15 30.12.15 29.12.15 02.01.16 - 28.12.15 28.12.15 01.01.16
_ Max-Zeit 14:45 01:05 21:15 21:10 - 10:00 12:30 19:35
Maximum _ 7,2 C 100 % 1032,7 hPa 2,6 l/m - 0,08 h 320 W/m 22,5 km/h
O-SO (4 Bft)
Durchschnitt _ 1,2 C 97 % 1024,8 hPa #16,4 l/m S-SW #6:40 h 58 W/m 3,7 km/h (1 Bft)